星链-6170 (STARLINK-6170 )

导读 | 豆包AI

STARLINK-6170是由美国SpaceX公司于2023年6月23日发射的星链卫星,属于全球星链卫星互联网星座的组成部分,运行在近地轨道,旨在为全球偏远、农村及缺乏网络覆盖地区提供高速宽带互联网服务,依托低轨部署降低信号延迟,提升网络接入质量。截至2026年3月,该卫星已在轨正常运行超两年,持续参与全球卫星互联网组网服务。

Basic Information
目录编号:
57129
目录名称:
STARLINK-6170
国际标识:
2023-090AE
轨道中心:
EARTH
卫星名称:
星链-6170
卫星全名:
星链-6170 (STARLINK-6170 )
卫星状态:
在轨 (已飞行1042 天)
发射日期:
2023-06-23 UTC
国别 :
美国 (US)
星等 :
--
Orbit Information
数据来源 国际轨道数据 AOE轨道数据
星历时间 2026-04-30T07:46:51+0800
11小时前
查看轨道信息
2026-04-26T17:00:00+0800
4天前
查看轨道信息
半长轴 6863.23km 6863.691km
偏心率 0.000192 0.0000024
轨道倾角 43.005° 43.006°
近地点辐角 261.675° 197.801°
升交点赤经 334.107° 354.506°
平近点角 98.389° 64.406°
近地点 483.775km 485.537km
远地点 486.411km 485.571km
周期 94.309分钟 94.318分钟
每日圈数 15.268978 15.26744
Detailed Information
固有亮度:
5
最大亮度:
2.4
卫星平台:
Starlink v1.5
覆盖范围:
全球
运营商:
太空探索技术公司
运营商所在国:
美国
制造商(研发单位):
太空探索技术公司
制造商所在国:
美国
使用方式:
暂无
Satellite Introduction
星链(Starlink)计划是由太空探索技术公司(SpaceX)提出的一个巨型低轨卫星互联网星座项目,计划在2019年至2024年间在太空搭建由约1.2万颗卫星组成的“星链”网络,其中1584颗将部署在地球上空550千米处的近地轨道,并从2020年开始工作。该卫星仍在工作。
2D Orbit Map
3D Orbit Map
Orbit Altitude Analysis Chart
Orbit Inclination Analysis Chart
Orbit Comprehensive Analysis Chart
View Comprehensive Chart